GW0147 Weather Reports


time (UTC)temp
C
wind
direction
speed
KPH
gust
KPH
rain 1hr
cm
rain 24hr
cm
rain mn
cm
humidity
%
barometer
mb
20260507161547 10 319 4.8 11.3 0.00 0.00 0.00 69 1013.5
20260507160047 10 283 6.4 14.5 0.00 0.00 0.00 70 1013.6
20260507154542 9 288 4.8 12.9 0.00 0.00 0.00 70 1013.7
20260507153041 9 262 4.8 11.3 0.00 0.00 0.00 71 1013.7
20260507151541 10 265 4.8 9.7 0.00 0.00 0.00 70 1013.8
20260507150039 10 313 4.8 8.0 0.00 0.00 0.00 73 1013.7
20260507144538 9 311 4.8 8.0 0.00 0.03 0.00 76 1013.7
20260507143056 9 302 3.2 11.3 0.00 0.03 0.00 76 1013.7
20260507141553 8 311 4.8 11.3 0.00 0.03 0.00 75 1013.7
20260507140035 9 11 1.6 8.0 0.00 0.03 0.00 75 1013.9
20260507134533 8 10 3.2 6.4 0.00 0.03 0.00 79 1014.0
20260507133034 8 11 3.2 8.0 0.00 0.03 0.00 80 1014.1
20260507131537 7 123 1.6 4.8 0.00 0.03 0.00 81 1014.0
20260507130038 7 127 1.6 6.4 0.00 0.03 0.00 81 1013.9
20260507124526 7 132 0.0 6.4 0.00 0.05 0.00 83 1014.1
20260507123024 6 183 1.6 3.2 0.00 0.05 0.00 85 1014.2
20260507121524 6 183 0.0 4.8 0.00 0.05 0.00 87 1014.2
20260507120023 5 183 0.0 4.8 0.00 0.05 0.00 88 1014.3
20260507114523 5 175 0.0 1.6 0.00 0.10 0.00 91 1014.4
20260507113023 4 170 0.0 0.0 0.00 0.10 0.00 91 1014.4
20260507111522 3 170 0.0 3.2 0.00 0.10 0.00 92 1014.3
20260507110022 3 170 0.0 6.4 0.00 0.10 0.00 92 1014.0
20260507104522 3 165 1.6 4.8 0.00 0.18 0.00 92 1013.7
20260507103020 3 165 0.0 3.2 0.00 0.18 0.00 92 1013.5
20260507101518 3 165 0.0 4.8 0.00 0.18 0.00 91 1013.3
20260507100017 3 165 0.0 4.8 0.00 0.18 0.00 92 1013.3
20260507094517 3 165 0.0 0.0 0.00 0.28 0.00 92 1013.5
20260507093017 3 165 0.0 3.2 0.00 0.28 0.00 91 1013.4
20260507091519 3 165 0.0 3.2 0.00 0.28 0.00 91 1013.4
20260507090014 3 165 3.2 6.4 0.00 0.28 0.00 92 1013.2
20260507084515 3 167 1.6 6.4 0.00 0.41 0.00 91 1013.3
20260507083013 3 164 1.6 6.4 0.00 0.41 0.00 92 1013.3
20260507081512 3 163 1.6 4.8 0.00 0.41 0.00 91 1013.5
20260507080010 3 164 0.0 4.8 0.00 0.41 0.00 91 1013.6
20260507074507 4 163 0.0 4.8 0.00 0.48 0.00 91 1013.7
20260507073007 4 162 1.6 4.8 0.00 0.48 0.00 91 1013.4
20260507071504 4 161 0.0 6.4 0.00 0.48 0.00 91 1013.4
20260507070004 5 165 1.6 6.4 0.00 0.48 0.00 91 1013.5
20260507064503 5 141 1.6 8.0 0.00 0.56 0.00 90 1013.4
20260507063122 5 200 1.6 4.8 0.00 0.56 0.00 90 1013.9
20260507061557 5 200 0.0 4.8 0.00 0.56 0.00 90 1014.1
20260507060112 5 192 0.0 4.8 0.00 0.56 0.00 90 1014.0
20260507054602 6 192 1.6 4.8 0.00 0.64 0.00 90 1014.0
20260507053058 6 192 1.6 4.8 0.00 0.64 0.00 90 1014.1
20260507051603 6 240 0.0 4.8 0.00 0.64 0.00 90 1014.3
20260507050050 6 246 0.0 3.2 0.00 0.64 0.00 90 1014.4
20260507044550 6 246 0.0 0.0 0.00 0.84 0.00 89 1014.4
20260507043046 6 246 0.0 1.6 0.00 0.84 0.00 89 1014.5
20260507041544 6 246 0.0 3.2 0.00 0.84 0.00 89 1014.4
20260507040042 6 246 0.0 1.6 0.00 0.84 0.00 89 1014.4
20260507034542 6 246 0.0 1.6 0.00 0.94 0.84 89 1014.3
20260507033041 6 246 0.0 1.6 0.00 0.94 0.84 89 1014.2
20260507031540 6 246 0.0 4.8 0.00 0.94 0.84 89 1014.3
20260507030040 6 260 0.0 3.2 0.00 0.94 0.84 88 1014.4
20260507024541 6 260 0.0 3.2 0.00 1.07 0.84 88 1014.3
20260507023043 6 260 0.0 4.8 0.00 1.07 0.84 88 1014.1
20260507021542 6 261 0.0 4.8 0.00 1.07 0.84 88 1014.3
20260507020042 6 341 0.0 3.2 0.00 1.07 0.84 88 1014.2
20260507014544 6 341 0.0 1.6 0.00 1.22 0.84 88 1014.4
20260507013037 6 341 0.0 3.2 0.00 1.22 0.84 88 1014.4
20260507011540 6 342 0.0 3.2 0.00 1.22 0.84 87 1014.3
20260507010054 6 342 0.0 1.6 0.00 1.22 0.84 87 1014.1
20260507004536 6 342 0.0 3.2 0.00 1.40 0.84 87 1013.9
20260507003032 6 342 0.0 0.0 0.00 1.40 0.84 86 1013.8
20260507001531 6 342 0.0 3.2 0.00 1.40 0.84 86 1013.7
20260507000028 6 344 0.0 3.2 0.00 1.40 0.84 86 1013.3
20260506234530 6 344 0.0 1.6 0.00 1.50 0.84 86 1013.1
20260506233027 6 344 0.0 1.6 0.00 1.50 0.84 87 1013.1
20260506231526 7 344 0.0 3.2 0.00 1.50 0.84 87 1013.2
20260506230028 6 344 0.0 3.2 0.00 1.50 0.84 88 1013.2
20260506224525 6 344 1.6 4.8 0.00 1.70 0.84 88 1013.1
20260506223024 6 348 3.2 8.0 0.00 1.70 0.84 88 1013.2
20260506221522 6 318 3.2 8.0 0.00 1.70 0.84 88 1012.8
20260506220028 6 34 3.2 9.7 0.00 1.70 0.84 89 1012.6
20260506214517 6 330 6.4 11.3 0.00 2.03 0.84 89 1012.4
20260506213016 6 321 6.4 17.7 0.00 2.03 0.84 88 1012.3
20260506211513 6 327 8.0 19.3 0.00 2.03 0.84 87 1012.1
20260506210009 7 221 6.4 17.7 0.00 2.03 0.84 87 1011.7
20260506204508 8 251 9.7 22.5 0.00 2.11 0.84 85 1011.5
20260506203006 9 232 6.4 19.3 0.00 2.11 0.84 85 1011.3
20260506201522 9 255 11.3 20.9 0.00 2.11 0.84 83 1011.2
20260506200005 10 269 6.4 16.1 0.00 2.11 0.84 81 1011.1
20260506194507 10 261 6.4 19.3 0.00 2.11 0.84 82 1011.0
20260506193003 11 244 4.8 19.3 0.00 2.11 0.84 82 1011.0
20260506191503 11 259 4.8 11.3 0.00 2.11 0.84 79 1011.0
20260506190002 11 265 6.4 14.5 0.00 2.11 0.84 76 1010.9
20260506184501 11 283 4.8 9.7 0.00 2.11 0.84 76 1010.8
20260506183114 11 274 4.8 9.7 0.00 2.11 0.84 76 1010.7
20260506181559 11 309 3.2 8.0 0.00 2.11 0.84 78 1010.7
20260506180057 10 310 0.0 6.4 0.00 2.11 0.84 81 1010.8
20260506174553 10 340 1.6 4.8 0.00 2.11 0.84 83 1010.9
20260506173053 10 360 1.6 4.8 0.00 2.11 0.84 83 1010.8
20260506171600 9 97 0.0 1.6 0.00 2.11 0.84 86 1010.7
20260506170053 8 33 1.6 4.8 0.00 2.11 0.84 87 1010.8
20260506164549 8 318 0.0 0.0 0.00 2.11 0.84 90 1010.9
20260506163046 8 316 0.0 4.8 0.00 2.11 0.84 91 1010.8